SES-21

Last updated on Sat Jul 05 2025 00:02:48 GMT+0000 (Coordinated Universal Time)

1 53961U 22123B 25185.53100515 .00000083 00000+0 00000+0 0 9994 2 53961 0.0417 31.1482 0000874 73.7072 238.1679 1.00267912 3728
UTC large
Height (km)
Speed (km/s)
/
Latitude / Longitude
Inclination (degrees)
Orbital Period (minutes)
Azimuth
Elevation
Range (km)
Doppler Factor

Next 0 passes for location: London (51.5072 / 0.1276)

Sorry there are no passes over London.